Regional Weather Roundup
Issued by NWS

Home | Current Version | Previous Version | Text Only | Print | Product List | Glossary On
Versions: 1 2 3 4 5 6 7 8 9 10 11 12 13 14 15 16 17 18 19 20 21 22 23 24 25 26 27 28 29 30 31 32 33 34 35 36 37 38 39 40 41 42 43 44 45 46 47 48 49 50
000
ASUS43 KTOP 220908
RWRKS

WEATHER ROUNDUP FOR KANSAS
NATIONAL WEATHER SERVICE GOODLAND KS
400 AM CDT SAT JUL 22 2017

NOTE:  "FAIR" INDICATES FEW OR NO CLOUDS BELOW 12,000 FEET WITH NO
SIGNIFICANT WEATHER AND/OR OBSTRUCTIONS TO VISIBILITY.

KSZ001>006-013>018-027>032-041>047-221000-
NORTHWEST KANSAS

CITY           SKY/WX    TMP DP  RH WIND       PRES   REMARKS
GOODLAND       PTCLDY    70  56  61 NW10      29.98F
HAYS           PTCLDY    79  58  48 SW15      29.86
HILL CITY      CLEAR     76  59  55 W5        29.85S
RUSSELL        CLEAR     81  59  47 SW14      29.85R
$$

KSZ061>065-074>080-084>089-221000-
SOUTHWEST KANSAS

CITY           SKY/WX    TMP DP  RH WIND       PRES   REMARKS
DODGE CITY     CLEAR     79  56  45 SW9       29.95R
ELKHART          N/A     78  48  34 CALM        N/A
GARDEN CITY    CLEAR     71  58  63 CALM      29.96F
LIBERAL        CLEAR     75  55  49 W6        30.00R
PRATT          CLEAR     75  61  62 S10       29.90F
$$

KSZ066>073-081>083-090>101-221000-
SOUTHEAST KANSAS

CITY           SKY/WX    TMP DP  RH WIND       PRES   REMARKS
CHANUTE        CLEAR     82  72  71 SW10      29.88S
COFFEYVILLE    CLEAR     80  72  76 S9        29.88F
HUTCHINSON     CLEAR     83  64  52 SW9       29.86F
MEDICINE LODGE   N/A     80  64  58 SE5       29.89S
NEWTON         CLEAR     82  68  62 SW16      29.87F
PARSONS        CLEAR     81  72  74 S8        29.89F
WICHITA INTL   CLEAR     81  70  69 S9        29.87F
WICHITA JABRA  CLEAR     83  70  64 S15G23    29.87F
WICHITA MCCONL CLEAR     82  69  64 SW14      29.88S
WINFIELD       CLEAR     83  69  62 S10       29.89F
$$

KSZ007>012-019>026-033>040-048>060-102>105-221000-
NORTHEAST KANSAS

CITY           SKY/WX    TMP DP  RH WIND       PRES   REMARKS
CONCORDIA      CLEAR     84  61  45 SW16      29.80S
EMPORIA        CLEAR     82  70  66 S16G23    29.85S
LAWRENCE       CLEAR     85  73  67 S7        29.82S
MANHATTAN      CLEAR     84  69  60 SW10      29.80S
MARYSVILLE     CLEAR     82  68  61 SW9       29.79S
OLATHE IND     CLEAR     83  72  69 S14G24    29.85S
OLATHE EXE     CLEAR     81  73  76 SW10      29.85S
SALINA         CLEAR     86  62  44 SW13      29.82S
TOPEKA BILLARD CLEAR     85  73  67 S10G20    29.80F
TOPEKA FORBES  CLEAR     84  73  69 S15       29.81F
$$



USA.gov is the U.S. government's official web portal to all federal, state and local government web resources and services.